Flag for Germany Weather past 2 weeks in Balingen, Baden-Württemberg, Germany

Now
55 °F

Clear.


Feels Like: 54 °F
Forecast: 42 / 64 °F
Wind: 6 mph from West

Location: Stuttgart-Echterdingen

Current Time: May 29, 2015 at 2:26:27 AM

Latest Report: May 29, 2015 at 1:50 AM


Visibility: 10 mi

Pressure: 29.98 "Hg

Humidity: 77%

Dew point: 48 °F

Location of BalingenLocation

Historic Weather in Balingen — Graph

°F

Balingen temperature yesterday

Maximum temperature yesterday: 70 °F (at 3:20 PM)
Minimum temperature yesterday: 39 °F (at 4:20 AM)
Average temperature yesterday: 56 °F

Past Weeks' High & Low Weather Summary

 TemperatureHumidityPressure
High73 °F (May 18, 5:20 PM)100% (May 15, 4:20 AM)30.30 "Hg (May 15, 4:20 AM)
Low37 °F (May 22, 5:50 AM)25% (May 18, 6:20 PM)29.74 "Hg (May 18, 6:20 PM)
Average56 °F70%30.06 "Hg
* Reported May 14 12:20 AM — May 29 12:20 AM, Balingen, Weather by CustomWeather, © 2015

Note: Actual official high and low records may vary slightly from our data, if they occured in-between our weather recording intervals... More about our weather records

Advertising

Balingen weather history for previous 24 hours

 ConditionsComfort  
Time TempWeatherWind HumidityBarometerVisibility
12:20 AM
Fri, May 29
57 °FClear.6 mph67%29.98 "Hg10 mi
11:50 PM
Thu, May 28
57 °FPassing clouds.6 mph67%29.98 "HgN/A
11:20 PM57 °FClear.3 mph67%29.98 "Hg10 mi
10:50 PM61 °FClear.3 mph59%29.98 "Hg10 mi
10:20 PM61 °FClear.6 mph59%29.98 "Hg10 mi
9:50 PM61 °FSunny.7 mph59%29.98 "Hg10 mi
9:20 PM63 °FSunny.5 mph56%29.98 "Hg10 mi
8:50 PM64 °FPassing clouds.3 mph49%29.98 "HgN/A
8:20 PM66 °FPassing clouds.5 mph43%29.98 "HgN/A
7:50 PM66 °FPassing clouds.6 mph43%29.98 "HgN/A
7:20 PM66 °FPassing clouds.8 mph43%29.98 "HgN/A
6:50 PM68 °FPassing clouds.12 mph38%29.98 "HgN/A
6:20 PM68 °FPassing clouds.6 mph43%29.98 "HgN/A
5:50 PM68 °FPassing clouds.7 mph43%29.98 "HgN/A
5:20 PM70 °FPassing clouds.14 mph38%29.98 "HgN/A
4:50 PM70 °FPassing clouds.9 mph35%29.98 "HgN/A
4:20 PM70 °FPassing clouds.7 mph33%29.98 "HgN/A
3:50 PM70 °FSunny.9 mph38%29.98 "Hg10 mi
3:20 PM70 °FSunny.6 mph35%30.01 "Hg10 mi
2:50 PM68 °FPassing clouds.7 mph38%30.01 "HgN/A
2:20 PM66 °FPassing clouds.9 mph43%30.01 "HgN/A
1:50 PM66 °FPassing clouds.8 mph43%30.04 "HgN/A
1:20 PM64 °FMild.8 mph49%30.04 "HgN/A
12:50 PM63 °FPartly sunny.7 mph45%30.04 "HgN/A
12:20 PM63 °FPartly sunny.6 mph45%30.07 "HgN/A
11:50 AM61 °FPartly sunny.6 mph52%30.07 "HgN/A
11:20 AM61 °FPartly sunny.6 mph52%30.07 "HgN/A
10:50 AM59 °FPartly sunny.5 mph59%30.09 "HgN/A
10:20 AM59 °FPartly sunny.2 mph59%30.09 "HgN/A
9:50 AM55 °FSunny.2 mph67%30.09 "Hg10 mi
9:20 AM54 °FSunny.2 mph72%30.09 "Hg10 mi
8:50 AM52 °FSunny.2 mph77%30.09 "Hg10 mi
8:20 AM50 °FSunny.2 mph82%30.09 "Hg10 mi
7:50 AM46 °FSunny.1 mph93%30.09 "Hg10 mi
7:20 AM45 °FSunny.1 mph93%30.09 "Hg10 mi
6:50 AM41 °FSunny.2 mph100%30.09 "Hg10 mi
6:20 AM39 °FFog.2 mph100%30.09 "HgN/A
5:50 AM39 °FClear.1 mph100%30.09 "Hg10 mi
5:20 AM39 °FClear.2 mph100%30.09 "Hg10 mi
4:50 AM39 °FChilly.2 mph93%30.09 "HgN/A
4:20 AM39 °FClear.2 mph93%30.12 "Hg10 mi
3:50 AM41 °FClear.1 mph93%30.12 "Hg10 mi
3:20 AM41 °FClear.1 mph93%30.12 "Hg10 mi
2:50 AM43 °FClear.2 mph87%30.12 "Hg10 mi
2:20 AM43 °FPassing clouds.3 mph87%30.12 "HgN/A
Weather by CustomWeather, © 2015

See weather overviewHow to use our weather pages